Вернуться в каталог

FENGYUN 1C DEB

АктивенPO
NORAD 31988·DEBRIS·🇨🇳 China

Запущен May 10, 1999 с Taiyuan Satellite Launch Center

Loading…

Ближайшие Пролёты (ближайшие 24 часа)

TLE

СвежийSource: Space-Track

Эпоха: Sep 14, 2026, 08:54 UTC

1 31988U 99025CPR 26257.37093432  .00001966  00000-0  88732-3 0  9990
2 31988  98.1184 309.8245 0060688 198.3443 161.5548 14.22178999680683

Отслеживайте FENGYUN 1C DEB в реальном времени с AllMySat

Download on the App Store